Weather History for KOFF - January, 2013

Change the Weather History Date:

Saturday, January 12, 2013

  Actual Average Record
Temperature  
Mean Temperature 20 °F -  
Max Temperature 28 °F 30 °F - (-1)
Min Temperature 12 °F 14 °F - (-1)
Degree Days  
Heating Degree Days 44    
Moisture  
Dew Point 9 °F    
Average Humidity 61    
Maximum Humidity 69    
Minimum Humidity 50    
Precipitation  
Precipitation 0.00 in - - ()
Sea Level Pressure  
Sea Level Pressure 30.07 in    
Wind  
Wind Speed 18 mph (WNW)    
Max Wind Speed 30 mph    
Max Gust Speed 36 mph    
Visibility 10 miles    
Events      
Averages and records for this station are not official NWS values.
T = Trace of Precipitation, MM = Missing Value Source: NWS Daily Summary

Daily Weather History Graph

Daily Weather History Graph

Search for Another Location

Airport or City:

Trip Planner

Search our weather history database for the weather conditions in past years. The results will help you decide how hot, cold, wet, or windy it might be!

Date:

Astronomy

Jan. 12, 2013 Rise Set
Actual Time 7:47 AM CST 5:16 PM CST
Civil Twilight 7:17 AM CST 5:47 PM CST
Nautical Twilight 6:43 AM CST 6:21 PM CST
Astronomical Twilight 6:09 AM CST 6:54 PM CST
Moon 8:06 AM CST (1/12) 6:48 PM CST (1/12)
Length of Visible Light 10h 30m
Length of Day
9h 29m
New Moon, 1% of the Moon is Illuminated
Jan 12
New Moon
Jan 18
First Quarter
Jan 26
Full
Feb 3
Last Quarter
Feb 10
New

Hourly Weather History & Observations

Time (CST) Temp. Windchill Dew Point Humidity Pressure Visibility Wind Dir Wind Speed Gust Speed Precip Events Conditions
12:05 AM 28.4 °F 14.1 °F 19.4 °F 69% 29.77 in 10.0 mi West 24.2 mph 32.2 mph N/A   Overcast
12:55 AM 26.2 °F 9.8 °F 16.0 °F 65% 29.81 in 10.0 mi West 29.9 mph 35.7 mph N/A   Partly Cloudy
1:55 AM 24.3 °F 8.9 °F 13.3 °F 63% 29.87 in 10.0 mi West 23.0 mph 33.4 mph N/A   Clear
2:55 AM 23.2 °F 8.6 °F 11.5 °F 61% 29.92 in 10.0 mi West 19.6 mph 32.2 mph N/A   Clear
3:55 AM 22.5 °F 8.5 °F 12.4 °F 65% 29.95 in 10.0 mi WNW 17.3 mph - N/A   Clear
4:55 AM 21.7 °F 8.5 °F 10.8 °F 63% 29.99 in 10.0 mi West 15.0 mph - N/A   Clear
5:55 AM 20.5 °F 6.4 °F 9.3 °F 62% 30.00 in 10.0 mi WNW 16.1 mph - N/A   Clear
6:55 AM 19.8 °F 7.7 °F 8.8 °F 62% 30.04 in 10.0 mi West 11.5 mph - N/A   Clear
7:55 AM 19.0 °F 8.2 °F 10.2 °F 69% 30.06 in 10.0 mi West 9.2 mph - N/A   Clear
8:55 AM 19.9 °F 7.9 °F 9.9 °F 65% 30.10 in 10.0 mi West 11.5 mph - N/A   Clear
9:55 AM 19.4 °F 6.0 °F 8.6 °F 63% 30.12 in 10.0 mi WNW 13.8 mph - N/A   Partly Cloudy
10:55 AM 20.7 °F 5.7 °F 7.2 °F 56% 30.14 in 10.0 mi West 18.4 mph 23.0 mph N/A   Overcast
11:55 AM 21.4 °F 7.1 °F 5.9 °F 51% 30.12 in 10.0 mi WNW 17.3 mph - N/A   Partly Cloudy
12:55 PM 22.6 °F 9.2 °F 7.0 °F 51% 30.10 in 10.0 mi NW 16.1 mph - N/A   Scattered Clouds
1:55 PM 23.4 °F 9.6 °F 7.0 °F 50% 30.09 in 10.0 mi NW 17.3 mph 23.0 mph N/A   Partly Cloudy
2:55 PM 22.3 °F 8.2 °F 7.3 °F 53% 30.09 in 10.0 mi WNW 17.3 mph - N/A   Mostly Cloudy
3:55 PM 21.7 °F 9.0 °F 7.2 °F 54% 30.12 in 10.0 mi NW 13.8 mph - N/A   Mostly Cloudy
4:55 PM 20.7 °F 8.8 °F 7.7 °F 57% 30.11 in 10.0 mi NNW 11.5 mph - N/A   Overcast
5:55 PM 19.2 °F 6.4 °F 6.6 °F 58% 30.16 in 10.0 mi NW 12.7 mph - N/A   Overcast
6:55 PM 18.9 °F 8.8 °F 6.6 °F 59% 30.19 in 10.0 mi NW 8.1 mph - N/A   Overcast
7:55 PM 17.6 °F 4.3 °F 6.1 °F 61% 30.18 in 10.0 mi NW 12.7 mph - N/A   Overcast
8:55 PM 16.5 °F 3.6 °F 5.9 °F 63% 30.18 in 10.0 mi NW 11.5 mph - N/A   Partly Cloudy
9:55 PM 15.1 °F 2.5 °F 5.4 °F 65% 30.18 in 10.0 mi NNW 10.4 mph - N/A   Partly Cloudy
10:55 PM 13.8 °F 0.2 °F 2.8 °F 62% 30.17 in 10.0 mi NW 11.5 mph 21.9 mph N/A   Clear
11:55 PM 12.2 °F -1.8 °F 2.8 °F 66% 30.18 in 10.0 mi NW 11.5 mph - N/A   Clear